Year,Month,Day,Hour,Minute,Value (Times are PST for temperature in C)
2022,10,01,00,00,13.80
2022,10,01,00,01,13.80
2022,10,01,00,02,13.80
2022,10,01,00,03,13.70
2022,10,01,00,04,13.70
2022,10,01,00,05,13.70
2022,10,01,00,06,13.70
2022,10,01,00,07,13.70
2022,10,01,00,08,13.70
2022,10,01,00,09,13.60
2022,10,01,00,10,13.60
2022,10,01,00,11,13.60
2022,10,01,00,12,13.60
2022,10,01,00,13,13.50
2022,10,01,00,14,13.50
2022,10,01,00,15,13.40
2022,10,01,00,16,13.40
2022,10,01,00,17,13.40
2022,10,01,00,18,13.30
2022,10,01,00,19,13.30
2022,10,01,00,20,13.30
2022,10,01,00,21,13.30
2022,10,01,00,22,13.30
2022,10,01,00,23,13.30
2022,10,01,00,24,13.30
2022,10,01,00,25,13.30
2022,10,01,00,26,13.30
2022,10,01,00,27,13.30
2022,10,01,00,28,13.30
2022,10,01,00,29,13.30
2022,10,01,00,30,13.30
2022,10,01,00,31,13.30
2022,10,01,00,32,13.30
2022,10,01,00,33,13.30
2022,10,01,00,34,13.30
2022,10,01,00,35,13.30
2022,10,01,00,36,13.30
2022,10,01,00,37,13.30
2022,10,01,00,38,13.30
2022,10,01,00,39,13.30
2022,10,01,00,40,13.30
2022,10,01,00,41,13.30
2022,10,01,00,42,13.30
2022,10,01,00,43,13.30
2022,10,01,00,44,13.40
2022,10,01,00,45,13.40
2022,10,01,00,46,13.40
2022,10,01,00,47,13.40
2022,10,01,00,48,13.40
2022,10,01,00,49,13.30
2022,10,01,00,50,13.30
2022,10,01,00,51,13.30
2022,10,01,00,52,13.30
2022,10,01,00,53,13.30
2022,10,01,00,54,13.30
2022,10,01,00,55,13.30
2022,10,01,00,56,13.20
2022,10,01,00,57,13.20
2022,10,01,00,58,13.20
2022,10,01,00,59,13.10
2022,10,01,01,00,13.10
2022,10,01,01,01,13.10
2022,10,01,01,02,13.10
2022,10,01,01,03,13.00
2022,10,01,01,04,13.00
2022,10,01,01,05,13.00
2022,10,01,01,06,12.90
2022,10,01,01,07,12.90
2022,10,01,01,08,12.90
2022,10,01,01,09,12.90
2022,10,01,01,10,12.90
2022,10,01,01,11,12.80
2022,10,01,01,12,12.80
2022,10,01,01,13,12.80
2022,10,01,01,14,12.80
2022,10,01,01,15,12.80
2022,10,01,01,16,12.70
2022,10,01,01,17,12.70
2022,10,01,01,18,12.70
2022,10,01,01,19,12.70
2022,10,01,01,20,12.70
2022,10,01,01,21,12.70
2022,10,01,01,22,12.70
2022,10,01,01,23,12.70
2022,10,01,01,24,12.70
2022,10,01,01,25,12.70
2022,10,01,01,26,12.70
2022,10,01,01,27,12.60
2022,10,01,01,28,12.60
2022,10,01,01,29,12.60
2022,10,01,01,30,12.60
2022,10,01,01,31,12.70
2022,10,01,01,32,12.70
2022,10,01,01,33,12.70
2022,10,01,01,34,12.70
2022,10,01,01,35,12.70
2022,10,01,01,36,12.70
2022,10,01,01,37,12.70
2022,10,01,01,38,12.80
2022,10,01,01,39,12.80
2022,10,01,01,40,12.80
2022,10,01,01,41,12.80
2022,10,01,01,42,12.80
2022,10,01,01,43,12.80
2022,10,01,01,44,12.80
2022,10,01,01,45,12.80
2022,10,01,01,46,12.80
2022,10,01,01,47,12.80
2022,10,01,01,48,12.80
2022,10,01,01,49,12.80
2022,10,01,01,50,12.80
2022,10,01,01,51,12.80
2022,10,01,01,52,12.80
2022,10,01,01,53,12.80
2022,10,01,01,54,12.80
2022,10,01,01,55,12.80
2022,10,01,01,56,12.80
2022,10,01,01,57,12.80
2022,10,01,01,58,12.80
2022,10,01,01,59,12.80
2022,10,01,02,00,12.80
2022,10,01,02,01,12.80
2022,10,01,02,02,12.80
2022,10,01,02,03,12.80
2022,10,01,02,04,12.80
2022,10,01,02,05,12.80
2022,10,01,02,06,12.80
2022,10,01,02,07,12.80
2022,10,01,02,08,12.80
2022,10,01,02,09,12.80
2022,10,01,02,10,12.80
2022,10,01,02,11,12.70
2022,10,01,02,12,12.70
2022,10,01,02,13,12.70
2022,10,01,02,14,12.70
2022,10,01,02,15,12.70
2022,10,01,02,16,12.70
2022,10,01,02,17,12.60
2022,10,01,02,18,12.60
2022,10,01,02,19,12.60
2022,10,01,02,20,12.60
2022,10,01,02,21,12.60
2022,10,01,02,22,12.60
2022,10,01,02,23,12.50
2022,10,01,02,24,12.50
2022,10,01,02,25,12.50
2022,10,01,02,26,12.50
2022,10,01,02,27,12.40
2022,10,01,02,28,12.40
2022,10,01,02,29,12.40
2022,10,01,02,30,12.40
2022,10,01,02,31,12.40
2022,10,01,02,32,12.40
2022,10,01,02,33,12.40
2022,10,01,02,34,12.40
2022,10,01,02,35,12.40
2022,10,01,02,36,12.40
2022,10,01,02,37,12.40
2022,10,01,02,38,12.40
2022,10,01,02,39,12.40
2022,10,01,02,40,12.40
2022,10,01,02,41,12.40
2022,10,01,02,42,12.40
2022,10,01,02,43,12.40
2022,10,01,02,44,12.40
2022,10,01,02,45,12.40
2022,10,01,02,46,12.40
2022,10,01,02,47,12.40
2022,10,01,02,48,12.40
2022,10,01,02,49,12.40
2022,10,01,02,50,12.40
2022,10,01,02,51,12.30
2022,10,01,02,52,12.30
2022,10,01,02,53,12.30
2022,10,01,02,54,12.30
2022,10,01,02,55,12.30
2022,10,01,02,56,12.30
2022,10,01,02,57,12.30
2022,10,01,02,58,12.30
2022,10,01,02,59,12.30
2022,10,01,03,00,12.30
2022,10,01,03,01,12.30
2022,10,01,03,02,12.30
2022,10,01,03,03,12.40
2022,10,01,03,04,12.40
2022,10,01,03,05,12.40
2022,10,01,03,06,12.40
2022,10,01,03,07,12.40
2022,10,01,03,08,12.40
2022,10,01,03,09,12.40
2022,10,01,03,10,12.40
2022,10,01,03,11,12.40
2022,10,01,03,12,12.40
2022,10,01,03,13,12.40
2022,10,01,03,14,12.40
2022,10,01,03,15,12.40
2022,10,01,03,16,12.40
2022,10,01,03,17,12.40
2022,10,01,03,18,12.40
2022,10,01,03,19,12.40
2022,10,01,03,20,12.40
2022,10,01,03,21,12.40
2022,10,01,03,22,12.40
2022,10,01,03,23,12.30
2022,10,01,03,24,12.30
2022,10,01,03,25,12.30
2022,10,01,03,26,12.30
2022,10,01,03,27,12.30
2022,10,01,03,28,12.30
2022,10,01,03,29,12.30
2022,10,01,03,30,12.20
2022,10,01,03,31,12.20
2022,10,01,03,32,12.20
2022,10,01,03,33,12.20
2022,10,01,03,34,12.30
2022,10,01,03,35,12.30
2022,10,01,03,36,12.30
2022,10,01,03,37,12.30
2022,10,01,03,38,12.40
2022,10,01,03,39,12.40
2022,10,01,03,40,12.40
2022,10,01,03,41,12.40
2022,10,01,03,42,12.40
2022,10,01,03,43,12.40
2022,10,01,03,44,12.40
2022,10,01,03,45,12.40
2022,10,01,03,46,12.40
2022,10,01,03,47,12.40
2022,10,01,03,48,12.40
2022,10,01,03,49,12.40
2022,10,01,03,50,12.40
2022,10,01,03,51,12.40
2022,10,01,03,52,12.40
2022,10,01,03,53,12.40
2022,10,01,03,54,12.40
2022,10,01,03,55,12.40
2022,10,01,03,56,12.40
2022,10,01,03,57,12.30
2022,10,01,03,58,12.30
2022,10,01,03,59,12.30
2022,10,01,04,00,12.30
2022,10,01,04,01,12.30
2022,10,01,04,02,12.30
2022,10,01,04,03,12.30
2022,10,01,04,04,12.20
2022,10,01,04,05,12.20
2022,10,01,04,06,12.20
2022,10,01,04,07,12.20
2022,10,01,04,08,12.20
2022,10,01,04,09,12.20
2022,10,01,04,10,12.20
2022,10,01,04,11,12.20
2022,10,01,04,12,12.10
2022,10,01,04,13,12.10
2022,10,01,04,14,12.10
2022,10,01,04,15,12.10
2022,10,01,04,16,12.10
2022,10,01,04,17,12.10
2022,10,01,04,18,12.00
2022,10,01,04,19,12.00
2022,10,01,04,20,12.00
2022,10,01,04,21,12.00
2022,10,01,04,22,12.00
2022,10,01,04,23,12.00
2022,10,01,04,24,12.00
2022,10,01,04,25,12.00
2022,10,01,04,26,11.90
2022,10,01,04,27,11.90
2022,10,01,04,28,11.90
2022,10,01,04,29,11.90
2022,10,01,04,30,11.90
2022,10,01,04,31,11.90
2022,10,01,04,32,11.90
2022,10,01,04,33,11.90
2022,10,01,04,34,11.90
2022,10,01,04,35,11.90
2022,10,01,04,36,11.90
2022,10,01,04,37,11.90
2022,10,01,04,38,11.90
2022,10,01,04,39,11.90
2022,10,01,04,40,11.90
2022,10,01,04,41,12.00
2022,10,01,04,42,12.00
2022,10,01,04,43,12.00
2022,10,01,04,44,12.00
2022,10,01,04,45,12.10
2022,10,01,04,46,12.10
2022,10,01,04,47,12.10
2022,10,01,04,48,12.10
2022,10,01,04,49,12.10
2022,10,01,04,50,12.10
2022,10,01,04,51,12.10
2022,10,01,04,52,12.10
2022,10,01,04,53,12.10
2022,10,01,04,54,12.10
2022,10,01,04,55,12.10
2022,10,01,04,56,12.10
2022,10,01,04,57,12.10
2022,10,01,04,58,12.10
2022,10,01,04,59,12.10
2022,10,01,05,00,12.10
2022,10,01,05,01,12.10
2022,10,01,05,02,12.10
2022,10,01,05,03,12.10
2022,10,01,05,04,12.10
2022,10,01,05,05,12.10
2022,10,01,05,06,12.10
2022,10,01,05,07,12.10
2022,10,01,05,08,12.10
2022,10,01,05,09,12.10
2022,10,01,05,10,12.10
2022,10,01,05,11,12.00
2022,10,01,05,12,12.00
2022,10,01,05,13,12.00
2022,10,01,05,14,12.00
2022,10,01,05,15,12.00
2022,10,01,05,16,11.90
2022,10,01,05,17,11.90
2022,10,01,05,18,11.90
2022,10,01,05,19,11.90
2022,10,01,05,20,11.90
2022,10,01,05,21,11.80
2022,10,01,05,22,11.80
2022,10,01,05,23,11.80
2022,10,01,05,24,11.80
2022,10,01,05,25,11.80
2022,10,01,05,26,11.70
2022,10,01,05,27,11.70
2022,10,01,05,28,11.70
2022,10,01,05,29,11.70
2022,10,01,05,30,11.70
2022,10,01,05,31,11.70
2022,10,01,05,32,11.70
2022,10,01,05,33,11.60
2022,10,01,05,34,11.60
2022,10,01,05,35,11.60
2022,10,01,05,36,11.60
2022,10,01,05,37,11.60
2022,10,01,05,38,11.60
2022,10,01,05,39,11.60
2022,10,01,05,40,11.60
2022,10,01,05,41,11.60
2022,10,01,05,42,11.60
2022,10,01,05,43,11.60
2022,10,01,05,44,11.60
2022,10,01,05,45,11.60
2022,10,01,05,46,11.60
2022,10,01,05,47,11.60
2022,10,01,05,48,11.60
2022,10,01,05,49,11.60
2022,10,01,05,50,11.60
2022,10,01,05,51,11.60
2022,10,01,05,52,11.60
2022,10,01,05,53,11.60
2022,10,01,05,54,11.60
2022,10,01,05,55,11.60
2022,10,01,05,56,11.60
2022,10,01,05,57,11.60
2022,10,01,05,58,11.60
2022,10,01,05,59,11.60
2022,10,01,06,00,11.60
2022,10,01,06,01,11.60
2022,10,01,06,02,11.60
2022,10,01,06,03,11.60
2022,10,01,06,04,11.60
2022,10,01,06,05,11.60
2022,10,01,06,06,11.60
2022,10,01,06,07,11.50
2022,10,01,06,08,11.50
2022,10,01,06,09,11.50
2022,10,01,06,10,11.50
2022,10,01,06,11,11.50
2022,10,01,06,12,11.50
2022,10,01,06,13,11.50
2022,10,01,06,14,11.60
2022,10,01,06,15,11.60
2022,10,01,06,16,11.60
2022,10,01,06,17,11.60
2022,10,01,06,18,11.60
2022,10,01,06,19,11.60
2022,10,01,06,20,11.60
2022,10,01,06,21,11.60
2022,10,01,06,22,11.60
2022,10,01,06,23,11.60
2022,10,01,06,24,11.50
2022,10,01,06,25,11.50
2022,10,01,06,26,11.50
2022,10,01,06,27,11.50
2022,10,01,06,28,11.50
2022,10,01,06,29,11.50
2022,10,01,06,30,11.50
2022,10,01,06,31,11.50
2022,10,01,06,32,11.50
2022,10,01,06,33,11.50
2022,10,01,06,34,11.50
2022,10,01,06,35,11.50
2022,10,01,06,36,11.50
2022,10,01,06,37,11.50
2022,10,01,06,38,11.40
2022,10,01,06,39,11.40
2022,10,01,06,40,11.40
2022,10,01,06,41,11.40
2022,10,01,06,42,11.40
2022,10,01,06,43,11.30
2022,10,01,06,44,11.30
2022,10,01,06,45,11.30
2022,10,01,06,46,11.30
2022,10,01,06,47,11.30
2022,10,01,06,48,11.30
2022,10,01,06,49,11.30
2022,10,01,06,50,11.30
2022,10,01,06,51,11.30
2022,10,01,06,52,11.30
2022,10,01,06,53,11.30
2022,10,01,06,54,11.30
2022,10,01,06,55,11.30
2022,10,01,06,56,11.30
2022,10,01,06,57,11.30
2022,10,01,06,58,11.30
2022,10,01,06,59,11.30
2022,10,01,07,00,11.30
2022,10,01,07,01,11.30
2022,10,01,07,02,11.30
2022,10,01,07,03,11.30
2022,10,01,07,04,11.30
2022,10,01,07,05,11.30
2022,10,01,07,06,11.30
2022,10,01,07,07,11.30
2022,10,01,07,08,11.20
2022,10,01,07,09,11.20
2022,10,01,07,10,11.20
2022,10,01,07,11,11.20
2022,10,01,07,12,11.20
2022,10,01,07,13,11.20
2022,10,01,07,14,11.20
2022,10,01,07,15,11.20
2022,10,01,07,16,11.20
2022,10,01,07,17,11.20
2022,10,01,07,18,11.20
2022,10,01,07,19,11.10
2022,10,01,07,20,11.10
2022,10,01,07,21,11.10
2022,10,01,07,22,11.10
2022,10,01,07,23,11.10
2022,10,01,07,24,11.10
2022,10,01,07,25,11.10
2022,10,01,07,26,11.10
2022,10,01,07,27,11.10
2022,10,01,07,28,11.10
2022,10,01,07,29,11.10
2022,10,01,07,30,11.10
2022,10,01,07,31,11.10
2022,10,01,07,32,11.10
2022,10,01,07,33,11.10
2022,10,01,07,34,11.10
2022,10,01,07,35,11.00
2022,10,01,07,36,11.10
2022,10,01,07,37,11.10
2022,10,01,07,38,11.10
2022,10,01,07,39,11.10
2022,10,01,07,40,11.10
2022,10,01,07,41,11.10
2022,10,01,07,42,11.10
2022,10,01,07,43,11.10
2022,10,01,07,44,11.10
2022,10,01,07,45,11.10
2022,10,01,07,46,11.20
2022,10,01,07,47,11.20
2022,10,01,07,48,11.20
2022,10,01,07,49,11.20
2022,10,01,07,50,11.20
2022,10,01,07,51,11.30
2022,10,01,07,52,11.30
2022,10,01,07,53,11.30
2022,10,01,07,54,11.30
2022,10,01,07,55,11.30
2022,10,01,07,56,11.30
2022,10,01,07,57,11.30
2022,10,01,07,58,11.30
2022,10,01,07,59,11.40
2022,10,01,08,00,11.40
2022,10,01,08,01,11.40
2022,10,01,08,02,11.40
2022,10,01,08,03,11.40
2022,10,01,08,04,11.40
2022,10,01,08,05,11.40
2022,10,01,08,06,11.40
2022,10,01,08,07,11.40
2022,10,01,08,08,11.40
2022,10,01,08,09,11.40
2022,10,01,08,10,11.50
2022,10,01,08,11,11.40
2022,10,01,08,12,11.50
2022,10,01,08,13,11.50
2022,10,01,08,14,11.50
2022,10,01,08,15,11.50
2022,10,01,08,16,11.60
2022,10,01,08,17,11.60
2022,10,01,08,18,11.60
2022,10,01,08,19,11.60
2022,10,01,08,20,11.60
2022,10,01,08,21,11.60
2022,10,01,08,22,11.60
2022,10,01,08,23,11.60
2022,10,01,08,24,11.70
2022,10,01,08,25,11.70
2022,10,01,08,26,11.70
2022,10,01,08,27,11.70
2022,10,01,08,28,11.70
2022,10,01,08,29,11.70
2022,10,01,08,30,11.70
2022,10,01,08,31,11.70
2022,10,01,08,32,11.70
2022,10,01,08,33,11.70
2022,10,01,08,34,11.80
2022,10,01,08,35,11.80
2022,10,01,08,36,11.80
2022,10,01,08,37,11.80
2022,10,01,08,38,11.80
2022,10,01,08,39,11.80
2022,10,01,08,40,11.80
2022,10,01,08,41,11.80
2022,10,01,08,42,11.80
2022,10,01,08,43,11.80
2022,10,01,08,44,11.90
2022,10,01,08,45,11.90
2022,10,01,08,46,11.90
2022,10,01,08,47,11.90
2022,10,01,08,48,11.90
2022,10,01,08,49,11.90
2022,10,01,08,50,11.90
2022,10,01,08,51,12.00
2022,10,01,08,52,12.00
2022,10,01,08,53,12.00
2022,10,01,08,54,12.00
2022,10,01,08,55,12.00
2022,10,01,08,56,12.10
2022,10,01,08,57,12.10
2022,10,01,08,58,12.10
2022,10,01,08,59,12.10
2022,10,01,09,00,12.20
2022,10,01,09,01,12.20
2022,10,01,09,02,12.20
2022,10,01,09,03,12.30
2022,10,01,09,04,12.30
2022,10,01,09,05,12.30
2022,10,01,09,06,12.30
2022,10,01,09,07,12.30
2022,10,01,09,08,12.30
2022,10,01,09,09,12.30
2022,10,01,09,10,12.40
2022,10,01,09,11,12.40
2022,10,01,09,12,12.40
2022,10,01,09,13,12.40
2022,10,01,09,14,12.40
2022,10,01,09,15,12.50
2022,10,01,09,16,12.50
2022,10,01,09,17,12.60
2022,10,01,09,18,12.60
2022,10,01,09,19,12.60
2022,10,01,09,20,12.70
2022,10,01,09,21,12.70
2022,10,01,09,22,12.70
2022,10,01,09,23,12.80
2022,10,01,09,24,12.80
2022,10,01,09,25,12.90
2022,10,01,09,26,12.90
2022,10,01,09,27,13.00
2022,10,01,09,28,13.00
2022,10,01,09,29,13.10
2022,10,01,09,30,13.10
2022,10,01,09,31,13.10
2022,10,01,09,32,13.20
2022,10,01,09,33,13.20
2022,10,01,09,34,13.20
2022,10,01,09,35,13.20
2022,10,01,09,36,13.30
2022,10,01,09,37,13.30
2022,10,01,09,38,13.30
2022,10,01,09,39,13.30
2022,10,01,09,40,13.40
2022,10,01,09,41,13.40
2022,10,01,09,42,13.40
2022,10,01,09,43,13.50
2022,10,01,09,44,13.50
2022,10,01,09,45,13.60
2022,10,01,09,46,13.60
2022,10,01,09,47,13.60
2022,10,01,09,48,13.70
2022,10,01,09,49,13.80
2022,10,01,09,50,13.90
2022,10,01,09,51,13.90
2022,10,01,09,52,14.00
2022,10,01,09,53,14.10
2022,10,01,09,54,14.20
2022,10,01,09,55,14.20
2022,10,01,09,56,14.20
2022,10,01,09,57,14.30
2022,10,01,09,58,14.30
2022,10,01,09,59,14.30
2022,10,01,10,00,14.20
2022,10,01,10,01,14.20
2022,10,01,10,02,14.10
2022,10,01,10,03,14.10
2022,10,01,10,04,14.00
2022,10,01,10,05,13.90
2022,10,01,10,06,13.90
2022,10,01,10,07,13.90
2022,10,01,10,08,13.90
2022,10,01,10,09,13.80
2022,10,01,10,10,13.90
2022,10,01,10,11,13.90
2022,10,01,10,12,13.90
2022,10,01,10,13,13.90
2022,10,01,10,14,13.90
2022,10,01,10,15,13.90
2022,10,01,10,16,13.90
2022,10,01,10,17,14.00
2022,10,01,10,18,14.00
2022,10,01,10,19,14.00
2022,10,01,10,20,14.00
2022,10,01,10,21,14.10
2022,10,01,10,22,14.10
2022,10,01,10,23,14.10
2022,10,01,10,24,14.10
2022,10,01,10,25,14.10
2022,10,01,10,26,14.20
2022,10,01,10,27,14.20
2022,10,01,10,28,14.20
2022,10,01,10,29,14.20
2022,10,01,10,30,14.20
2022,10,01,10,31,14.30
2022,10,01,10,32,14.30
2022,10,01,10,33,14.40
2022,10,01,10,34,14.40
2022,10,01,10,35,14.50
2022,10,01,10,36,14.60
2022,10,01,10,37,14.60
2022,10,01,10,38,14.70
2022,10,01,10,39,14.70
2022,10,01,10,40,14.80
2022,10,01,10,41,14.80
2022,10,01,10,42,14.80
2022,10,01,10,43,14.90
2022,10,01,10,44,14.90
2022,10,01,10,45,15.00
2022,10,01,10,46,15.00
2022,10,01,10,47,15.10
2022,10,01,10,48,15.10
2022,10,01,10,49,15.20
2022,10,01,10,50,15.20
2022,10,01,10,51,15.30
2022,10,01,10,52,15.30
2022,10,01,10,53,15.40
2022,10,01,10,54,15.40
2022,10,01,10,55,15.50
2022,10,01,10,56,15.60
2022,10,01,10,57,15.60
2022,10,01,10,58,15.70
2022,10,01,10,59,15.80
2022,10,01,11,00,15.80
2022,10,01,11,01,15.80
2022,10,01,11,02,15.90
2022,10,01,11,03,15.90
2022,10,01,11,04,15.90
2022,10,01,11,05,15.90
2022,10,01,11,06,16.00
2022,10,01,11,07,16.00
2022,10,01,11,08,16.10
2022,10,01,11,09,16.10
2022,10,01,11,10,16.10
2022,10,01,11,11,16.10
2022,10,01,11,12,16.20
2022,10,01,11,13,16.20
2022,10,01,11,14,16.20
2022,10,01,11,15,16.30
2022,10,01,11,16,16.40
2022,10,01,11,17,16.40
2022,10,01,11,18,16.50
2022,10,01,11,19,16.60
2022,10,01,11,20,16.70
2022,10,01,11,21,16.80
2022,10,01,11,22,16.90
2022,10,01,11,23,17.00
2022,10,01,11,24,17.00
2022,10,01,11,25,17.10
2022,10,01,11,26,17.10
2022,10,01,11,27,17.20
2022,10,01,11,28,17.20
2022,10,01,11,29,17.30
2022,10,01,11,30,17.30
2022,10,01,11,31,17.30
2022,10,01,11,32,17.40
2022,10,01,11,33,17.40
2022,10,01,11,34,17.50
2022,10,01,11,35,17.50
2022,10,01,11,36,17.60
2022,10,01,11,37,17.60
2022,10,01,11,38,17.70
2022,10,01,11,39,17.80
2022,10,01,11,40,17.80
2022,10,01,11,41,17.90
2022,10,01,11,42,18.00
2022,10,01,11,43,18.10
2022,10,01,11,44,18.20
2022,10,01,11,45,18.30
2022,10,01,11,46,18.30
2022,10,01,11,47,18.40
2022,10,01,11,48,18.40
2022,10,01,11,49,18.40
2022,10,01,11,50,18.50
2022,10,01,11,51,18.50
2022,10,01,11,52,18.50
2022,10,01,11,53,18.50
2022,10,01,11,54,18.60
2022,10,01,11,55,18.60
2022,10,01,11,56,18.60
2022,10,01,11,57,18.60
2022,10,01,11,58,18.60
2022,10,01,11,59,18.50
2022,10,01,12,00,18.50
2022,10,01,12,01,18.40
2022,10,01,12,02,18.40
2022,10,01,12,03,18.40
2022,10,01,12,04,18.40
2022,10,01,12,05,18.40
2022,10,01,12,06,18.40
2022,10,01,12,07,18.40
2022,10,01,12,08,18.50
2022,10,01,12,09,18.60
2022,10,01,12,10,18.60
2022,10,01,12,11,18.70
2022,10,01,12,12,18.70
2022,10,01,12,13,18.70
2022,10,01,12,14,18.70
2022,10,01,12,15,18.70
2022,10,01,12,16,18.70
2022,10,01,12,17,18.70
2022,10,01,12,18,18.70
2022,10,01,12,19,18.70
2022,10,01,12,20,18.80
2022,10,01,12,21,18.80
2022,10,01,12,22,18.80
2022,10,01,12,23,18.90
2022,10,01,12,24,18.90
2022,10,01,12,25,19.00
2022,10,01,12,26,19.00
2022,10,01,12,27,19.00
2022,10,01,12,28,19.10
2022,10,01,12,29,19.10
2022,10,01,12,30,19.10
2022,10,01,12,31,19.10
2022,10,01,12,32,19.20
2022,10,01,12,33,19.20
2022,10,01,12,34,19.30
2022,10,01,12,35,19.30
2022,10,01,12,36,19.40
2022,10,01,12,37,19.40
2022,10,01,12,38,19.40
2022,10,01,12,39,19.50
2022,10,01,12,40,19.50
2022,10,01,12,41,19.50
2022,10,01,12,42,19.60
2022,10,01,12,43,19.60
2022,10,01,12,44,19.70
2022,10,01,12,45,19.70
2022,10,01,12,46,19.70
2022,10,01,12,47,19.70
2022,10,01,12,48,19.70
2022,10,01,12,49,19.80
2022,10,01,12,50,19.80
2022,10,01,12,51,19.80
2022,10,01,12,52,19.90
2022,10,01,12,53,19.90
2022,10,01,12,54,19.90
2022,10,01,12,55,20.00
2022,10,01,12,56,20.00
2022,10,01,12,57,20.00
2022,10,01,12,58,20.10
2022,10,01,12,59,20.10
2022,10,01,13,00,20.10
2022,10,01,13,01,20.20
2022,10,01,13,02,20.20
2022,10,01,13,03,20.20
2022,10,01,13,04,20.20
2022,10,01,13,05,20.20
2022,10,01,13,06,20.20
2022,10,01,13,07,20.20
2022,10,01,13,08,20.30
2022,10,01,13,09,20.30
2022,10,01,13,10,20.40
2022,10,01,13,11,20.50
2022,10,01,13,12,20.50
2022,10,01,13,13,20.50
2022,10,01,13,14,20.50
2022,10,01,13,15,20.50
2022,10,01,13,16,20.50
2022,10,01,13,17,20.40
2022,10,01,13,18,20.40
2022,10,01,13,19,20.50
2022,10,01,13,20,20.50
2022,10,01,13,21,20.50
2022,10,01,13,22,20.60
2022,10,01,13,23,20.60
2022,10,01,13,24,20.70
2022,10,01,13,25,20.70
2022,10,01,13,26,20.70
2022,10,01,13,27,20.60
2022,10,01,13,28,20.60
2022,10,01,13,29,20.60
2022,10,01,13,30,20.50
2022,10,01,13,31,20.50
2022,10,01,13,32,20.40
2022,10,01,13,33,20.40
2022,10,01,13,34,20.40
2022,10,01,13,35,20.40
2022,10,01,13,36,20.40
2022,10,01,13,37,20.40
2022,10,01,13,38,20.30
2022,10,01,13,39,20.40
2022,10,01,13,40,20.40
2022,10,01,13,41,20.40
2022,10,01,13,42,20.50
2022,10,01,13,43,20.50
2022,10,01,13,44,20.60
2022,10,01,13,45,20.70
2022,10,01,13,46,20.80
2022,10,01,13,47,20.80
2022,10,01,13,48,20.90
2022,10,01,13,49,21.00
2022,10,01,13,50,21.10
2022,10,01,13,51,21.10
2022,10,01,13,52,21.20
2022,10,01,13,53,21.30
2022,10,01,13,54,21.40
2022,10,01,13,55,21.60
2022,10,01,13,56,21.70
2022,10,01,13,57,21.80
2022,10,01,13,58,21.90
2022,10,01,13,59,22.00
2022,10,01,14,00,22.10
2022,10,01,14,01,22.20
2022,10,01,14,02,22.20
2022,10,01,14,03,22.30
2022,10,01,14,04,22.40
2022,10,01,14,05,22.40
2022,10,01,14,06,22.50
2022,10,01,14,07,22.60
2022,10,01,14,08,22.60
2022,10,01,14,09,22.70
2022,10,01,14,10,22.80
2022,10,01,14,11,22.80
2022,10,01,14,12,22.90
2022,10,01,14,13,22.90
2022,10,01,14,14,22.90
2022,10,01,14,15,22.90
2022,10,01,14,16,22.90
2022,10,01,14,17,22.80
2022,10,01,14,18,22.80
2022,10,01,14,19,22.80
2022,10,01,14,20,22.80
2022,10,01,14,21,22.90
2022,10,01,14,22,22.90
2022,10,01,14,23,22.90
2022,10,01,14,24,22.90
2022,10,01,14,25,22.90
2022,10,01,14,26,22.90
2022,10,01,14,27,22.90
2022,10,01,14,28,22.90
2022,10,01,14,29,22.90
2022,10,01,14,30,22.80
2022,10,01,14,31,22.80
2022,10,01,14,32,22.80
2022,10,01,14,33,22.80
2022,10,01,14,34,22.90
2022,10,01,14,35,22.90
2022,10,01,14,36,22.80
2022,10,01,14,37,22.80
2022,10,01,14,38,22.80
2022,10,01,14,39,22.80
2022,10,01,14,40,22.70
2022,10,01,14,41,22.70
2022,10,01,14,42,22.60
2022,10,01,14,43,22.50
2022,10,01,14,44,22.40
2022,10,01,14,45,22.40
2022,10,01,14,46,22.30
2022,10,01,14,47,22.30
2022,10,01,14,48,22.30
2022,10,01,14,49,22.30
2022,10,01,14,50,22.40
2022,10,01,14,51,22.40
2022,10,01,14,52,22.40
2022,10,01,14,53,22.50
2022,10,01,14,54,22.50
2022,10,01,14,55,22.60
2022,10,01,14,56,22.60
2022,10,01,14,57,22.60
2022,10,01,14,58,22.70
2022,10,01,14,59,22.70
2022,10,01,15,00,22.70
2022,10,01,15,01,22.70
2022,10,01,15,02,22.60
2022,10,01,15,03,22.70
2022,10,01,15,04,22.70
2022,10,01,15,05,22.70
2022,10,01,15,06,22.70
2022,10,01,15,07,22.70
2022,10,01,15,08,22.80
2022,10,01,15,09,22.80
2022,10,01,15,10,22.80
2022,10,01,15,11,22.90
2022,10,01,15,12,23.00
2022,10,01,15,13,23.00
2022,10,01,15,14,23.10
2022,10,01,15,15,23.20
2022,10,01,15,16,23.30
2022,10,01,15,17,23.30
2022,10,01,15,18,23.40
2022,10,01,15,19,23.60
2022,10,01,15,20,23.70
2022,10,01,15,21,23.80
2022,10,01,15,22,23.80
2022,10,01,15,23,23.80
2022,10,01,15,24,23.80
2022,10,01,15,25,23.80
2022,10,01,15,26,23.80
2022,10,01,15,27,23.80
2022,10,01,15,28,23.80
2022,10,01,15,29,23.80
2022,10,01,15,30,23.80
2022,10,01,15,31,23.70
2022,10,01,15,32,23.70
2022,10,01,15,33,23.60
2022,10,01,15,34,23.60
2022,10,01,15,35,23.60
2022,10,01,15,36,23.60
2022,10,01,15,37,23.70
2022,10,01,15,38,23.70
2022,10,01,15,39,23.70
2022,10,01,15,40,23.70
2022,10,01,15,41,23.70
2022,10,01,15,42,23.70
2022,10,01,15,43,23.60
2022,10,01,15,44,23.60
2022,10,01,15,45,23.60
2022,10,01,15,46,23.60
2022,10,01,15,47,23.70
2022,10,01,15,48,23.70
2022,10,01,15,49,23.70
2022,10,01,15,50,23.70
2022,10,01,15,51,23.70
2022,10,01,15,52,23.70
2022,10,01,15,53,23.70
2022,10,01,15,54,23.70
2022,10,01,15,55,23.80
2022,10,01,15,56,23.80
2022,10,01,15,57,23.80
2022,10,01,15,58,23.80
2022,10,01,15,59,23.90
2022,10,01,16,00,23.90
2022,10,01,16,01,23.90
2022,10,01,16,02,23.90
2022,10,01,16,03,23.90
2022,10,01,16,04,23.90
2022,10,01,16,05,23.90
2022,10,01,16,06,23.90
2022,10,01,16,07,24.00
2022,10,01,16,08,24.00
2022,10,01,16,09,24.00
2022,10,01,16,10,24.10
2022,10,01,16,11,24.10
2022,10,01,16,12,24.10
2022,10,01,16,13,24.20
2022,10,01,16,14,24.20
2022,10,01,16,15,24.20
2022,10,01,16,16,24.30
2022,10,01,16,17,24.30
2022,10,01,16,18,24.30
2022,10,01,16,19,24.40
2022,10,01,16,20,24.50
2022,10,01,16,21,24.50
2022,10,01,16,22,24.60
2022,10,01,16,23,24.70
2022,10,01,16,24,24.70
2022,10,01,16,25,24.80
2022,10,01,16,26,24.80
2022,10,01,16,27,24.80
2022,10,01,16,28,24.80
2022,10,01,16,29,24.80
2022,10,01,16,30,24.80
2022,10,01,16,31,24.80
2022,10,01,16,32,24.90
2022,10,01,16,33,24.90
2022,10,01,16,34,24.90
2022,10,01,16,35,24.90
2022,10,01,16,36,24.90
2022,10,01,16,37,24.90
2022,10,01,16,38,24.90
2022,10,01,16,39,24.90
2022,10,01,16,40,24.90
2022,10,01,16,41,24.80
2022,10,01,16,42,24.80
2022,10,01,16,43,24.80
2022,10,01,16,44,24.80
2022,10,01,16,45,24.70
2022,10,01,16,46,24.70
2022,10,01,16,47,24.70
2022,10,01,16,48,24.70
2022,10,01,16,49,24.60
2022,10,01,16,50,24.60
2022,10,01,16,51,24.60
2022,10,01,16,52,24.60
2022,10,01,16,53,24.50
2022,10,01,16,54,24.50
2022,10,01,16,55,24.40
2022,10,01,16,56,24.40
2022,10,01,16,57,24.40
2022,10,01,16,58,24.40
2022,10,01,16,59,24.40
2022,10,01,17,00,24.40
2022,10,01,17,01,24.50
2022,10,01,17,02,24.50
2022,10,01,17,03,24.60
2022,10,01,17,04,24.60
2022,10,01,17,05,24.60
2022,10,01,17,06,24.60
2022,10,01,17,07,24.60
2022,10,01,17,08,24.60
2022,10,01,17,09,24.50
2022,10,01,17,10,24.50
2022,10,01,17,11,24.50
2022,10,01,17,12,24.40
2022,10,01,17,13,24.40
2022,10,01,17,14,24.40
2022,10,01,17,15,24.30
2022,10,01,17,16,24.30
2022,10,01,17,17,24.20
2022,10,01,17,18,24.20
2022,10,01,17,19,24.20